Location: Conjunto Santa Maria
(19.9513°S, 43.9599°W)
Time: 13:35:30
(UTC+00:00)

NOSS 3-3 (C) - Pass Details

Date: 21 January 2021
Orbit: 810 x 1402 km, 63.4° (Epoch: 01 March)

Event Time Altitude Azimuth Distance (km) Brightness Sun altitude
Rises 22:33:25 0° 200° (SSW) 3,581 7.7 -12.1°
Reaches altitude 10° 22:36:08 10° 195° (SSW) 2,564 6.8 -12.7°
Maximum altitude 22:41:49 53° 118° (ESE) 1,018 3.9 -13.9°
Enters shadow 22:45:24 21° 48° (NE) 1,778 4.8 -14.6°
